Regional Weather Roundup
Issued by NWS

Home | Current Version | Previous Version | Text Only | Print | Product List | Glossary Off
Versions: 1 2 3 4 5 6 7 8 9 10 11 12 13 14 15 16 17 18 19 20 21 22 23 24 25 26 27 28 29 30 31 32 33 34 35 36 37 38 39 40 41 42 43 44 45 46 47 48 49 50

533
ASUS45 KSLC 260710
RWRUT

UTAH REGIONAL WEATHER ROUNDUP
NATIONAL WEATHER SERVICE SALT LAKE CITY UT
100 AM MDT SUN MAR 26 2017

UTZ001>011-023>025-260800-

NORTHERN UTAH

CITY           SKY/WX    TMP DP  RH WIND       PRES   REMARKS
BRIGHAM CITY     N/A     41  38  89 CALM      30.03S
HILL AFB       CLOUDY    38  35  89 SE5       30.02F WCI  35
LOGAN          CLEAR     40  35  83 S5        30.02S
OGDEN          CLOUDY    36  35  96 S7        30.01F WCI  30
SALT LAKE CITY MOCLDY    39  38  96 W5        30.02S
WENDOVER       CLEAR     40  30  67 SW5       30.04R
HEBER CITY     PTCLDY    36  32  87 CALM      30.00S

$$

UTZ011>015-024>027-260800-

CENTRAL/NORTHEAST UTAH

CITY           SKY/WX    TMP DP  RH WIND       PRES   REMARKS
PROVO AIRPORT  MOCLDY    41  37  86 CALM      30.03F
MOAB/CANYONLAN CLOUDY    47  41  80 W6        29.87S
DELTA          CLEAR     36  34  93 S8        30.04S WCI  29
PRICE          CLEAR     39  30  70 NW10      29.93S WCI  32
ROOSEVELT      CLEAR     43  37  81 W3        29.92S
VERNAL         CLOUDY    45  34  65 E8        29.90S

$$

UTZ013>016-019>022-027-260800-

SOUTHERN UTAH

CITY           SKY/WX    TMP DP  RH WIND       PRES   REMARKS
BRYCE CANYON   MOCLDY    31  28  89 NW10      30.01S WCI  22
CEDAR CITY     PTCLDY    34  33  96 CALM      30.03S
MILFORD        CLEAR     36  32  85 CALM      30.04S
ST GEORGE      MOSUNNY   45  38  76 SE7       30.01S
HANKSVILLE     CLOUDY    50  32  50 NW10G16   29.94R
BLANDING       CLOUDY    39  35  86 CALM      30.01S

$$

REGIONAL REPORTS     COLORADO/ARIZONA

CITY           SKY/WX    TMP DP  RH WIND       PRES   REMARKS
CRAIG, CO      LGT RAIN  42  35  76 W7        29.91F
GRAND JUNCTION CLOUDY    47  35  63 W5        29.86S
RIFLE, CO      CLOUDY    41  34  76 E6        29.89F
MONTROSE, CO   CLOUDY    43  37  79 SW10      29.92S
CORTEZ, CO     LGT RAIN  39  38  96 W3        29.95F
COLORADO CITY    N/A     37  34  87 W7        30.04S WCI  32
PAGE, AZ       CLEAR     50  38  63 VRB6      29.94R
GRAND CANYON   CLEAR     35  30  82 CALM      30.03R
KINGMAN, AZ    CLEAR     44  30  57 SE6       29.99S
FLAGSTAFF, AZ  CLEAR     35  28  75 W8        30.03F WCI  29

$$

REGIONAL REPORTS    NEVADA/IDAHO/WYOMING

CITY           SKY/WX    TMP DP  RH WIND       PRES   REMARKS
LAS VEGAS, NV  PTCLDY    60  35  39 N7        29.97R
ELY, NY        CLEAR     28  26  92 S8        30.07R WCI  20
ELKO, NV       CLEAR     35  28  75 CALM      30.03F
POCATELLO, ID  CLEAR     39  28  64 S12       30.01R WCI  32
BURLEY, ID     CLEAR     35  28  75 SW10      30.01S WCI  27
FORT BRIDGER,  PTSUNNY   33  32  96 W9        30.03R WCI  25
EVANSTON, WY   CLOUDY    31  27  85 W5        30.01F WCI  26
ROCK SPRINGS,  CLOUDY    37  32  82 NW10      29.95S WCI  30
KEMMERER, WY     N/A     30  27  86 NW8       29.98F WCI  23

$$




USA.gov is the U.S. government's official web portal to all federal, state and local government web resources and services.